Weather History for Wausau, WI

Change the Weather History Date:

Sunday, September 1, 2013

  Actual Average Record
Temperature  
Mean Temperature 71 °F 64 °F  
Max Temperature 78 °F 75 °F 95 °F (1953)
Min Temperature 63 °F 54 °F 33 °F (1909)
Degree Days  
Heating Degree Days 0 3  
Month to date heating degree days 0 3  
Since 1 July heating degree days 56 69  
Cooling Degree Days 6 2  
Month to date cooling degree days 6 2  
Year to date cooling degree days 456 377  
Growing Degree Days 20 (Base 50)    
Moisture  
Dew Point 63 °F    
Average Humidity 74    
Maximum Humidity 93    
Minimum Humidity 54    
Precipitation  
Precipitation 0.51 in 0.13 in 3.05 in (1914)
Month to date precipitation 0.51 0.13  
Year to date precipitation 28.14 22.34  
Snow  
Snow 0.00 in 0.00 in 0.00 in ()
Month to date snowfall 0.0 0.0  
Since 1 July snowfall 0.0 0.0  
Since 1 September snowfall 0.0 0.0  
Snow Depth 0.00 in    
Sea Level Pressure  
Sea Level Pressure 29.77 in    
Wind  
Wind Speed 8 mph (WSW)    
Max Wind Speed 18 mph    
Max Gust Speed 25 mph    
Visibility 9 miles    
Events Rain , Thunderstorm    
T = Trace of Precipitation, MM = Missing Value Source: NWS Daily Summary

Daily Weather History Graph

Daily Weather History Graph

Search for Another Location

Airport:

Trip Planner

Search our weather history database for the weather conditions in past years. The results will help you decide how hot, cold, wet, or windy it might be!

Date:

Astronomy

Sep. 01, 2013 Rise Set
Actual Time 6:20 AM CDT 7:35 PM CDT
Civil Twilight 5:50 AM CDT 8:05 PM CDT
Nautical Twilight 5:14 AM CDT 8:41 PM CDT
Astronomical Twilight 4:35 AM CDT 9:19 PM CDT
Moon 2:36 AM CDT (9/1) 5:17 PM CDT (9/1)
Length of Visible Light 14h 14m
Length of Day
13h 14m
Waning Crescent, 13% of the Moon is Illuminated
Sep 1
Waning Crescent
Sep 5
New
Sep 12
First Quarter
Sep 19
Full
Sep 26
Last Quarter

Hourly Weather History & Observations

Time (CDT) Temp. Dew Point Humidity Pressure Visibility Wind Dir Wind Speed Gust Speed Precip Events Conditions
12:54 AM 66.9 °F 63.0 °F 87% 29.79 in 10.0 mi SSE 5.8 mph - N/A   Clear
1:54 AM 66.9 °F 63.0 °F 87% 29.75 in 10.0 mi SSE 4.6 mph - N/A   Clear
2:54 AM 68.0 °F 63.0 °F 84% 29.76 in 10.0 mi South 10.4 mph - N/A   Clear
3:54 AM 66.9 °F 64.0 °F 90% 29.76 in 10.0 mi SSE 4.6 mph - 0.00 in   Mostly Cloudy
4:54 AM 66.9 °F 64.0 °F 90% 29.74 in 10.0 mi South 9.2 mph - 0.01 in   Partly Cloudy
5:14 AM 66.2 °F 64.4 °F 94% 29.76 in 9.0 mi SW 6.9 mph - 0.01 in Rain , Thunderstorm Light Thunderstorms and Rain
5:19 AM 66.2 °F 64.4 °F 94% 29.78 in 1.2 mi West 12.7 mph - 0.29 in Rain , Thunderstorm Heavy Thunderstorms and Rain
5:27 AM 66.2 °F 64.4 °F 94% 29.76 in 0.8 mi SSW 10.4 mph 18.4 mph 0.40 in Rain , Thunderstorm Light Thunderstorms and Rain
5:29 AM 66.2 °F 64.4 °F 94% 29.76 in 1.2 mi SW 12.7 mph 18.4 mph 0.40 in Rain , Thunderstorm Light Thunderstorms and Rain
5:31 AM 66.2 °F 64.4 °F 94% 29.76 in 3.0 mi SW 11.5 mph 18.4 mph 0.41 in Rain , Thunderstorm Light Thunderstorms and Rain
5:39 AM 66.2 °F 64.4 °F 94% 29.75 in 6.0 mi SW 5.8 mph - 0.42 in Rain Light Rain
5:54 AM 66.9 °F 64.0 °F 90% 29.75 in 8.0 mi Calm Calm - 0.44 in Rain Light Rain
6:13 AM 66.2 °F 62.6 °F 88% 29.74 in 10.0 mi Calm Calm - 0.03 in Thunderstorm Overcast
6:28 AM 66.2 °F 64.4 °F 94% 29.74 in 10.0 mi SSW 3.5 mph - 0.03 in   Mostly Cloudy
6:45 AM 66.2 °F 62.6 °F 88% 29.75 in 10.0 mi SSW 9.2 mph - 0.03 in Thunderstorm Mostly Cloudy
6:54 AM 66.9 °F 64.9 °F 93% 29.75 in 10.0 mi SSW 5.8 mph - 0.03 in Rain Light Rain
7:05 AM 66.2 °F 62.6 °F 88% 29.77 in 6.0 mi SW 8.1 mph - 0.01 in Rain , Thunderstorm Light Rain
7:19 AM 66.2 °F 64.4 °F 94% 29.76 in 10.0 mi Calm Calm - 0.01 in Rain Light Rain
7:47 AM 66.2 °F 64.4 °F 94% 29.75 in 10.0 mi Variable 3.5 mph - 0.03 in Thunderstorm Overcast
7:54 AM 66.0 °F 64.0 °F 93% 29.74 in 10.0 mi SSE 4.6 mph - 0.03 in Thunderstorm Overcast
8:03 AM 66.2 °F 64.4 °F 94% 29.74 in 10.0 mi SE 6.9 mph - N/A   Overcast
8:54 AM 68.0 °F 64.9 °F 90% 29.75 in 10.0 mi Calm Calm - 0.00 in   Overcast
9:04 AM 68.0 °F 64.4 °F 88% 29.75 in 10.0 mi Calm Calm - N/A   Overcast
9:31 AM 69.8 °F 66.2 °F 88% 29.76 in 10.0 mi WSW 3.5 mph - N/A   Overcast
9:54 AM 69.1 °F 66.9 °F 93% 29.76 in 10.0 mi West 3.5 mph - N/A   Overcast
10:11 AM 71.6 °F 66.2 °F 83% 29.75 in 10.0 mi West 6.9 mph - N/A   Mostly Cloudy
10:25 AM 71.6 °F 66.2 °F 83% 29.75 in 10.0 mi SSW 4.6 mph - N/A   Mostly Cloudy
10:30 AM 71.6 °F 66.2 °F 83% 29.75 in 10.0 mi Variable 3.5 mph - N/A   Mostly Cloudy
10:41 AM 73.4 °F 66.2 °F 78% 29.75 in 10.0 mi West 8.1 mph - N/A   Mostly Cloudy
10:54 AM 73.9 °F 66.0 °F 76% 29.75 in 10.0 mi West 10.4 mph - N/A   Mostly Cloudy
11:03 AM 73.4 °F 64.4 °F 73% 29.75 in 10.0 mi West 11.5 mph - N/A   Scattered Clouds
11:12 AM 73.4 °F 64.4 °F 73% 29.75 in 10.0 mi West 12.7 mph 17.3 mph N/A   Mostly Cloudy
11:54 AM 73.9 °F 63.0 °F 68% 29.75 in 10.0 mi WNW 11.5 mph - N/A   Scattered Clouds
12:54 PM 75.0 °F 61.0 °F 62% 29.76 in 10.0 mi WNW 10.4 mph - N/A   Scattered Clouds
1:54 PM 75.0 °F 57.9 °F 55% 29.76 in 10.0 mi NW 15.0 mph - N/A   Scattered Clouds
2:54 PM 75.0 °F 57.9 °F 55% 29.77 in 10.0 mi NW 16.1 mph 24.2 mph N/A   Scattered Clouds
3:54 PM 75.9 °F 57.0 °F 52% 29.76 in 10.0 mi WNW 16.1 mph - N/A   Partly Cloudy
4:54 PM 75.0 °F 57.9 °F 55% 29.78 in 10.0 mi NW 13.8 mph 19.6 mph N/A   Mostly Cloudy
5:54 PM 75.9 °F 57.9 °F 54% 29.79 in 10.0 mi NW 10.4 mph 16.1 mph N/A   Overcast
6:54 PM 73.9 °F 57.0 °F 55% 29.80 in 10.0 mi NNW 6.9 mph - N/A   Mostly Cloudy
7:54 PM 69.1 °F 60.1 °F 73% 29.82 in 10.0 mi Calm Calm - N/A   Scattered Clouds
8:54 PM 71.1 °F 57.9 °F 63% 29.84 in 10.0 mi NNW 3.5 mph - N/A   Overcast
9:54 PM 68.0 °F 59.0 °F 73% 29.86 in 10.0 mi NNW 6.9 mph 16.1 mph N/A   Mostly Cloudy
10:54 PM 66.0 °F 59.0 °F 78% 29.87 in 10.0 mi NW 8.1 mph 16.1 mph N/A   Mostly Cloudy
11:20 PM 66.2 °F 57.2 °F 73% 29.88 in 10.0 mi NNW 10.4 mph 17.3 mph N/A   Overcast
11:52 PM 64.4 °F 55.4 °F 73% 29.88 in 10.0 mi NNW 11.5 mph - N/A   Overcast
11:54 PM 64.0 °F 55.9 °F 75% 29.88 in 10.0 mi NNW 11.5 mph - N/A   Overcast